| time (UTC) | temp F | wind direction | speed knots | gust knots | rain 1hr in | rain 24hr in | rain mn in | humidity % | barometer mb |
| 20260504173007 | 77 | 220 | 2.6 | 2.6 | 0.00 | 0.00 | 0.00 | 24 | 1017.9 |
| 20260504172506 | 78 | 90 | 0.9 | 1.7 | 0.00 | 0.00 | 0.00 | 23 | 1017.9 |
| 20260504172004 | 77 | 184 | 0.9 | 0.9 | 0.00 | 0.00 | 0.00 | 24 | 1017.9 |
| 20260504171507 | 77 | 52 | 1.7 | 1.7 | 0.00 | 0.00 | 0.00 | 23 | 1017.9 |
| 20260504171005 | 77 | 75 | 0.9 | 0.9 | 0.00 | 0.00 | 0.00 | 24 | 1018.3 |
| 20260504170506 | 75 | 270 | 4.3 | 5.2 | 0.00 | 0.00 | 0.00 | 24 | 1018.3 |
| 20260504151007 | 71 | 51 | 0.9 | 1.7 | 0.00 | 0.00 | 0.00 | 27 | 1020.0 |
| 20260504150507 | 70 | 36 | 0.0 | 1.7 | 0.00 | 0.00 | 0.00 | 27 | 1020.0 |
| 20260504141010 | 64 | 49 | 0.0 | 0.0 | 0.00 | 0.00 | 0.00 | 38 | 1020.0 |
| 20260504140507 | 63 | 20 | 0.9 | 1.7 | 0.00 | 0.00 | 0.00 | 38 | 1020.0 |
| 20260504130507 | 58 | 82 | 0.9 | 1.7 | 0.00 | 0.00 | 0.00 | 45 | 1020.0 |
| 20260504110506 | 49 | 53 | 0.0 | 0.0 | 0.00 | 0.00 | 0.00 | 63 | 1020.7 |
| 20260504100506 | 49 | 51 | 0.0 | 0.0 | 0.00 | 0.00 | 0.00 | 59 | 1020.7 |
| 20260504082006 | 49 | 39 | 0.0 | 0.0 | 0.00 | 0.00 | 0.00 | 59 | 1021.0 |
| 20260504081511 | 49 | 46 | 0.0 | 0.0 | 0.00 | 0.00 | 0.00 | 60 | 1021.0 |
| 20260504081006 | 49 | 38 | 0.0 | 0.0 | 0.00 | 0.00 | 0.00 | 62 | 1021.0 |
| 20260504080506 | 48 | 31 | 0.9 | 0.9 | 0.00 | 0.00 | 0.00 | 62 | 1021.0 |
| 20260504050506 | 48 | 44 | 0.0 | 0.0 | 0.00 | 0.00 | 0.00 | 53 | 1021.0 |
| 20260504050005 | 49 | 50 | 0.0 | 0.0 | 0.00 | 0.00 | 0.00 | 51 | 1021.0 |
| 20260504045505 | 49 | 50 | 0.0 | 0.0 | 0.00 | 0.00 | 0.00 | 51 | 1021.0 |
| 20260504045004 | 49 | 51 | 0.0 | 0.0 | 0.00 | 0.00 | 0.00 | 50 | 1021.0 |
| 20260504044505 | 49 | 57 | 0.0 | 0.0 | 0.00 | 0.00 | 0.00 | 50 | 1021.0 |
| 20260504044005 | 49 | 50 | 0.0 | 0.0 | 0.00 | 0.00 | 0.00 | 49 | 1021.0 |
| 20260504043505 | 49 | 48 | 0.0 | 0.0 | 0.00 | 0.00 | 0.00 | 50 | 1021.0 |
| 20260504043005 | 49 | 50 | 0.9 | 0.9 | 0.00 | 0.00 | 0.00 | 50 | 1021.0 |
| 20260504042514 | 50 | 51 | 0.0 | 0.9 | 0.00 | 0.00 | 0.00 | 49 | 1021.0 |
| 20260504042006 | 50 | 57 | 0.9 | 0.9 | 0.00 | 0.00 | 0.00 | 49 | 1021.0 |
| 20260504041505 | 49 | 54 | 0.0 | 0.0 | 0.00 | 0.00 | 0.00 | 50 | 1021.0 |
| 20260504041004 | 50 | 52 | 0.0 | 0.9 | 0.00 | 0.00 | 0.00 | 52 | 1021.0 |
| 20260504040505 | 49 | 56 | 0.0 | 0.0 | 0.00 | 0.00 | 0.00 | 54 | 1021.0 |
| 20260504040005 | 50 | 46 | 0.0 | 0.0 | 0.00 | 0.00 | 0.00 | 54 | 1021.0 |
| 20260504035505 | 49 | 56 | 0.9 | 0.9 | 0.00 | 0.00 | 0.00 | 54 | 1021.0 |
| 20260504035005 | 48 | 54 | 0.9 | 0.9 | 0.00 | 0.00 | 0.00 | 57 | 1021.0 |
| 20260504034504 | 47 | 47 | 0.0 | 0.0 | 0.00 | 0.00 | 0.00 | 59 | 1021.0 |
| 20260504034005 | 47 | 29 | 0.9 | 0.9 | 0.00 | 0.00 | 0.00 | 58 | 1021.0 |
| 20260504033508 | 47 | 34 | 0.9 | 0.9 | 0.00 | 0.00 | 0.00 | 58 | 1021.0 |
| 20260504033005 | 47 | 51 | 0.0 | 0.0 | 0.00 | 0.00 | 0.00 | 58 | 1021.0 |
| 20260504032504 | 47 | 51 | 0.0 | 0.9 | 0.00 | 0.00 | 0.00 | 58 | 1021.0 |
| 20260504032008 | 48 | 53 | 0.0 | 0.0 | 0.00 | 0.00 | 0.00 | 56 | 1020.7 |
| 20260504031506 | 48 | 52 | 0.9 | 0.9 | 0.00 | 0.00 | 0.00 | 57 | 1020.7 |
| 20260504031006 | 48 | 50 | 0.9 | 0.9 | 0.00 | 0.00 | 0.00 | 55 | 1020.7 |
| 20260504030505 | 48 | 50 | 0.0 | 0.0 | 0.00 | 0.00 | 0.00 | 54 | 1020.7 |
| 20260504030005 | 48 | 50 | 0.0 | 0.0 | 0.00 | 0.00 | 0.00 | 55 | 1020.7 |
| 20260504025504 | 49 | 50 | 0.0 | 0.0 | 0.00 | 0.00 | 0.00 | 53 | 1020.7 |
| 20260504025005 | 49 | 50 | 0.0 | 0.0 | 0.00 | 0.00 | 0.00 | 52 | 1020.7 |
| 20260504024504 | 49 | 50 | 0.0 | 0.0 | 0.00 | 0.00 | 0.00 | 52 | 1020.7 |
| 20260504024004 | 49 | 50 | 0.0 | 0.0 | 0.00 | 0.00 | 0.00 | 53 | 1020.7 |
| 20260504023505 | 49 | 50 | 0.0 | 0.0 | 0.00 | 0.00 | 0.00 | 52 | 1020.7 |
| 20260504023005 | 49 | 49 | 0.0 | 0.0 | 0.00 | 0.00 | 0.00 | 53 | 1020.7 |
| 20260504022504 | 49 | 48 | 0.0 | 0.0 | 0.00 | 0.00 | 0.00 | 53 | 1020.7 |
| 20260504022004 | 50 | 48 | 0.0 | 0.0 | 0.00 | 0.00 | 0.00 | 52 | 1020.7 |
| 20260504021504 | 50 | 47 | 0.0 | 0.0 | 0.00 | 0.00 | 0.00 | 51 | 1020.7 |
| 20260504021005 | 50 | 45 | 0.0 | 0.0 | 0.00 | 0.00 | 0.00 | 50 | 1020.7 |
| 20260504020504 | 50 | 53 | 0.0 | 0.0 | 0.00 | 0.00 | 0.00 | 49 | 1020.7 |
| 20260504020005 | 50 | 54 | 0.0 | 0.0 | 0.00 | 0.00 | 0.00 | 49 | 1020.7 |
| 20260504015504 | 51 | 51 | 0.9 | 0.9 | 0.00 | 0.00 | 0.00 | 47 | 1020.7 |
| 20260504015005 | 51 | 48 | 0.0 | 0.0 | 0.00 | 0.00 | 0.00 | 45 | 1020.7 |
| 20260504014504 | 51 | 48 | 0.0 | 0.0 | 0.00 | 0.00 | 0.00 | 44 | 1020.7 |
| 20260504014007 | 51 | 48 | 0.0 | 0.0 | 0.00 | 0.00 | 0.00 | 43 | 1020.7 |
| 20260504013504 | 52 | 48 | 0.0 | 0.0 | 0.00 | 0.00 | 0.00 | 43 | 1020.7 |
| 20260504013005 | 52 | 48 | 0.0 | 0.0 | 0.00 | 0.00 | 0.00 | 43 | 1020.7 |
| 20260504012505 | 53 | 52 | 0.0 | 0.9 | 0.00 | 0.00 | 0.00 | 41 | 1020.7 |
| 20260504012004 | 53 | 50 | 0.0 | 0.0 | 0.00 | 0.00 | 0.00 | 42 | 1020.7 |
| 20260504011505 | 53 | 49 | 0.0 | 0.0 | 0.00 | 0.00 | 0.00 | 43 | 1020.7 |
| 20260504011004 | 54 | 44 | 0.0 | 0.0 | 0.00 | 0.00 | 0.00 | 42 | 1020.3 |
| 20260504010504 | 54 | 12 | 0.9 | 0.9 | 0.00 | 0.00 | 0.00 | 42 | 1020.3 |
| 20260504010006 | 54 | 51 | 0.0 | 0.0 | 0.00 | 0.00 | 0.00 | 41 | 1020.3 |
| 20260504005506 | 54 | 52 | 0.0 | 0.0 | 0.00 | 0.00 | 0.00 | 41 | 1020.3 |
| 20260504005004 | 55 | 53 | 0.0 | 0.0 | 0.00 | 0.00 | 0.00 | 40 | 1020.3 |
| 20260504004504 | 55 | 53 | 0.0 | 0.0 | 0.00 | 0.00 | 0.00 | 39 | 1020.0 |
| 20260504004004 | 55 | 51 | 0.0 | 0.0 | 0.00 | 0.00 | 0.00 | 39 | 1020.0 |
| 20260504003505 | 56 | 44 | 0.0 | 0.0 | 0.00 | 0.00 | 0.00 | 38 | 1020.0 |
| 20260504003005 | 56 | 44 | 0.0 | 0.0 | 0.00 | 0.00 | 0.00 | 37 | 1020.0 |
| 20260504002508 | 56 | 44 | 0.0 | 0.0 | 0.00 | 0.00 | 0.00 | 36 | 1020.0 |
| 20260504002005 | 57 | 23 | 0.9 | 0.9 | 0.00 | 0.00 | 0.00 | 35 | 1020.0 |
| 20260504001505 | 58 | 48 | 0.0 | 0.0 | 0.00 | 0.00 | 0.00 | 33 | 1020.0 |
| 20260504001004 | 58 | 53 | 0.0 | 0.9 | 0.00 | 0.00 | 0.00 | 32 | 1020.0 |
| 20260504000504 | 58 | 50 | 0.0 | 0.0 | 0.00 | 0.00 | 0.00 | 31 | 1020.0 |
| 20260504000005 | 59 | 48 | 0.0 | 0.0 | 0.00 | 0.00 | 0.00 | 31 | 1020.0 |
| 20260503235505 | 60 | 48 | 0.0 | 0.0 | 0.00 | 0.00 | 0.00 | 30 | 1020.0 |
| 20260503235005 | 60 | 46 | 0.0 | 0.0 | 0.00 | 0.00 | 0.00 | 28 | 1020.0 |
| 20260503234506 | 61 | 48 | 0.0 | 0.0 | 0.00 | 0.00 | 0.00 | 27 | 1020.0 |
| 20260503234004 | 61 | 36 | 0.0 | 0.0 | 0.00 | 0.00 | 0.00 | 27 | 1020.0 |
| 20260503233504 | 61 | 43 | 1.7 | 2.6 | 0.00 | 0.00 | 0.00 | 25 | 1020.0 |
| 20260503233004 | 61 | 47 | 0.9 | 1.7 | 0.00 | 0.00 | 0.00 | 25 | 1020.0 |
| 20260503232504 | 62 | 49 | 1.7 | 1.7 | 0.00 | 0.00 | 0.00 | 25 | 1020.0 |
| 20260503232004 | 62 | 90 | 0.9 | 0.9 | 0.00 | 0.00 | 0.00 | 24 | 1019.6 |
| 20260503231504 | 63 | 52 | 0.0 | 0.9 | 0.00 | 0.00 | 0.00 | 24 | 1019.6 |
| 20260503231004 | 64 | 61 | 0.0 | 0.0 | 0.00 | 0.00 | 0.00 | 23 | 1019.6 |
| 20260503230504 | 65 | 62 | 1.7 | 1.7 | 0.00 | 0.00 | 0.00 | 22 | 1019.6 |
| 20260503230004 | 66 | 60 | 0.9 | 0.9 | 0.00 | 0.00 | 0.00 | 22 | 1019.6 |
| 20260503225505 | 67 | 78 | 1.7 | 2.6 | 0.00 | 0.00 | 0.00 | 22 | 1019.6 |
| 20260503225004 | 66 | 46 | 0.9 | 1.7 | 0.00 | 0.00 | 0.00 | 22 | 1019.6 |
| 20260503224504 | 66 | 14 | 1.7 | 2.6 | 0.00 | 0.00 | 0.00 | 21 | 1019.6 |
| 20260503224005 | 67 | 43 | 0.0 | 0.9 | 0.00 | 0.00 | 0.00 | 21 | 1019.6 |
| 20260503223505 | 66 | 77 | 2.6 | 3.5 | 0.00 | 0.00 | 0.00 | 21 | 1020.0 |
| 20260503223004 | 66 | 243 | 4.3 | 4.3 | 0.00 | 0.00 | 0.00 | 21 | 1020.0 |
| 20260503222505 | 67 | 43 | 1.7 | 1.7 | 0.00 | 0.00 | 0.00 | 21 | 1020.0 |
| 20260503222005 | 67 | 83 | 2.6 | 3.5 | 0.00 | 0.00 | 0.00 | 21 | 1019.6 |
| 20260503221505 | 68 | 46 | 0.9 | 1.7 | 0.00 | 0.00 | 0.00 | 21 | 1019.6 |
| 20260503221005 | 68 | 48 | 0.9 | 0.9 | 0.00 | 0.00 | 0.00 | 21 | 1019.6 |
| 20260503220504 | 68 | 70 | 2.6 | 2.6 | 0.00 | 0.00 | 0.00 | 20 | 1019.6 |
| 20260503220004 | 67 | 100 | 1.7 | 2.6 | 0.00 | 0.00 | 0.00 | 20 | 1020.0 |
| 20260503215504 | 67 | 55 | 2.6 | 3.5 | 0.00 | 0.00 | 0.00 | 21 | 1020.0 |
| 20260503215004 | 66 | 59 | 2.6 | 5.2 | 0.00 | 0.00 | 0.00 | 20 | 1020.0 |
| 20260503214504 | 69 | 63 | 0.9 | 2.6 | 0.00 | 0.00 | 0.00 | 20 | 1019.6 |
| 20260503214005 | 68 | 54 | 1.7 | 2.6 | 0.00 | 0.00 | 0.00 | 20 | 1019.6 |
| 20260503213504 | 68 | 52 | 1.7 | 1.7 | 0.00 | 0.00 | 0.00 | 19 | 1020.0 |
| 20260503213005 | 68 | 114 | 1.7 | 1.7 | 0.00 | 0.00 | 0.00 | 19 | 1020.0 |
| 20260503212505 | 68 | 39 | 4.3 | 4.3 | 0.00 | 0.00 | 0.00 | 19 | 1020.0 |
| 20260503212004 | 68 | 74 | 4.3 | 8.7 | 0.00 | 0.00 | 0.00 | 20 | 1020.0 |
| 20260503211505 | 69 | 76 | 0.9 | 0.9 | 0.00 | 0.00 | 0.00 | 19 | 1020.0 |
| 20260503211005 | 69 | 66 | 3.5 | 4.3 | 0.00 | 0.00 | 0.00 | 19 | 1020.0 |
| 20260503210504 | 69 | 48 | 1.7 | 5.2 | 0.00 | 0.00 | 0.00 | 20 | 1020.0 |
| 20260503210006 | 68 | 69 | 2.6 | 2.6 | 0.00 | 0.00 | 0.00 | 20 | 1020.0 |
| 20260503205505 | 67 | 61 | 2.6 | 6.1 | 0.00 | 0.00 | 0.00 | 23 | 1020.0 |
| 20260503205004 | 67 | 48 | 1.7 | 3.5 | 0.00 | 0.00 | 0.00 | 21 | 1020.0 |
| 20260503204504 | 67 | 97 | 0.9 | 0.9 | 0.00 | 0.00 | 0.00 | 21 | 1020.0 |
| 20260503204004 | 67 | 238 | 1.7 | 1.7 | 0.00 | 0.00 | 0.00 | 20 | 1020.0 |
| 20260503203505 | 66 | 356 | 3.5 | 6.1 | 0.00 | 0.00 | 0.00 | 20 | 1020.0 |
| 20260503203008 | 67 | 55 | 1.7 | 2.6 | 0.00 | 0.00 | 0.00 | 21 | 1020.0 |
| 20260503202504 | 68 | 359 | 0.9 | 1.7 | 0.00 | 0.00 | 0.00 | 20 | 1020.0 |
| 20260503202005 | 67 | 81 | 2.6 | 5.2 | 0.00 | 0.00 | 0.00 | 21 | 1020.0 |
| 20260503201505 | 67 | 84 | 3.5 | 3.5 | 0.00 | 0.00 | 0.00 | 20 | 1020.0 |
| 20260503201004 | 67 | 86 | 2.6 | 2.6 | 0.00 | 0.00 | 0.00 | 22 | 1020.0 |
| 20260503200507 | 67 | 78 | 3.5 | 3.5 | 0.00 | 0.00 | 0.00 | 21 | 1020.0 |
| 20260503200005 | 66 | 47 | 1.7 | 4.3 | 0.00 | 0.00 | 0.00 | 22 | 1020.0 |
| 20260503195504 | 67 | 197 | 2.6 | 2.6 | 0.00 | 0.00 | 0.00 | 21 | 1020.0 |
| 20260503195005 | 68 | 65 | 0.9 | 2.6 | 0.00 | 0.00 | 0.00 | 21 | 1020.0 |
| 20260503194504 | 67 | 25 | 0.9 | 1.7 | 0.00 | 0.00 | 0.00 | 22 | 1020.3 |
| 20260503194004 | 64 | 99 | 3.5 | 3.5 | 0.00 | 0.00 | 0.00 | 24 | 1020.3 |
| 20260503193504 | 66 | 352 | 3.5 | 6.1 | 0.00 | 0.00 | 0.00 | 23 | 1020.3 |
| 20260503193006 | 66 | 18 | 4.3 | 4.3 | 0.00 | 0.00 | 0.00 | 23 | 1020.3 |
| 20260503192505 | 65 | 52 | 2.6 | 3.5 | 0.00 | 0.00 | 0.00 | 22 | 1020.7 |
| 20260503192005 | 67 | 111 | 0.9 | 1.7 | 0.00 | 0.00 | 0.00 | 22 | 1020.7 |
| 20260503191505 | 67 | 73 | 2.6 | 2.6 | 0.00 | 0.00 | 0.00 | 23 | 1020.7 |
| 20260503191005 | 65 | 275 | 1.7 | 2.6 | 0.00 | 0.00 | 0.00 | 23 | 1020.7 |
| 20260503190506 | 64 | 48 | 2.6 | 4.3 | 0.00 | 0.00 | 0.00 | 24 | 1020.7 |
| 20260503190006 | 64 | 21 | 3.5 | 5.2 | 0.00 | 0.00 | 0.00 | 24 | 1020.7 |
| 20260503185506 | 64 | 58 | 0.9 | 3.5 | 0.00 | 0.00 | 0.00 | 24 | 1020.7 |
| 20260503185006 | 62 | 72 | 1.7 | 2.6 | 0.00 | 0.00 | 0.00 | 26 | 1020.7 |
| 20260503184505 | 62 | 72 | 1.7 | 2.6 | 0.00 | 0.00 | 0.00 | 26 | 1021.0 |
| 20260503184004 | 62 | 77 | 1.7 | 4.3 | 0.00 | 0.00 | 0.00 | 25 | 1021.0 |
| 20260503183507 | 63 | 62 | 2.6 | 2.6 | 0.00 | 0.00 | 0.00 | 25 | 1021.0 |
| 20260503183005 | 62 | 56 | 1.7 | 3.5 | 0.00 | 0.00 | 0.00 | 25 | 1021.0 |
| 20260503182505 | 63 | 67 | 1.7 | 2.6 | 0.00 | 0.00 | 0.00 | 25 | 1021.7 |
| 20260503182006 | 63 | 74 | 4.3 | 4.3 | 0.00 | 0.00 | 0.00 | 24 | 1021.7 |
| 20260503181505 | 64 | 38 | 0.9 | 1.7 | 0.00 | 0.00 | 0.00 | 24 | 1021.7 |
| 20260503181004 | 62 | 66 | 3.5 | 6.1 | 0.00 | 0.00 | 0.00 | 25 | 1021.7 |
| 20260503180504 | 62 | 45 | 1.7 | 2.6 | 0.00 | 0.00 | 0.00 | 27 | 1021.7 |
| 20260503180004 | 60 | 124 | 3.5 | 3.5 | 0.00 | 0.00 | 0.00 | 26 | 1021.7 |
| 20260503175505 | 59 | 67 | 6.1 | 9.6 | 0.00 | 0.00 | 0.00 | 27 | 1021.7 |
| 20260503175005 | 63 | 55 | 1.7 | 2.6 | 0.00 | 0.00 | 0.00 | 25 | 1021.7 |
| 20260503174505 | 61 | 87 | 2.6 | 7.0 | 0.00 | 0.00 | 0.00 | 26 | 1021.7 |
| 20260503174005 | 60 | 91 | 1.7 | 1.7 | 0.00 | 0.00 | 0.00 | 28 | 1021.7 |
| 20260503173504 | 60 | 259 | 1.7 | 4.3 | 0.00 | 0.00 | 0.00 | 27 | 1021.7 |